When you browse on this site, cookies collect data to enhance your experience and personalize the content and advertising you see.
Visit our Privacy Policy to learn more. By continuing to use the site, you agree to this use of cookies and data.
  • In France
  • List of Countries
  • For 7 days
  • Water Temperature
  • Satellite Maps
  • Weather Map
  • Weather Widgets
  • user-avatar
    Login

    Hourly Weather Townsville

    Today, 14 December, Friday

    Time Temperature Precipitation Wind Pressure Humidity
    00:00 +28°C° 0.5 mm 2 mps 748 mmHg 94%
    01:00 +28°C° 0.5 mm 2 mps 747 mmHg 93%
    02:00 +27°C° 0.2 mm 2 mps 747 mmHg 92%
    03:00 +27°C° 0.2 mm 1 mps 747 mmHg 91%
    04:00 +27°C° 0 mm 1 mps 746 mmHg 92%
    05:00 +27°C° 0 mm 1 mps 747 mmHg 90%
    06:00 +28°C° 0 mm 1 mps 747 mmHg 87%
    07:00 +28°C° 0 mm 1 mps 747 mmHg 85%
    08:00 +30°C° 0 mm 1 mps 747 mmHg 77%
    09:00 +31°C° 0 mm 1 mps 747 mmHg 69%
    10:00 +33°C° 0 mm 1 mps 747 mmHg 61%
    11:00 +34°C° 0.1 mm 2 mps 747 mmHg 59%
    12:00 +35°C° 0.1 mm 2 mps 747 mmHg 58%
    13:00 +35°C° 0.1 mm 2 mps 747 mmHg 56%
    14:00 +34°C° 0.3 mm 2 mps 746 mmHg 63%
    15:00 +31°C° 0.3 mm 2 mps 746 mmHg 69%
    16:00 +30°C° 0.3 mm 2 mps 746 mmHg 75%
    17:00 +29°C° 0.6 mm 2 mps 746 mmHg 80%
    18:00 +29°C° 0.6 mm 2 mps 747 mmHg 85%
    19:00 +28°C° 0.6 mm 2 mps 747 mmHg 89%
    20:00 +28°C° 0.7 mm 2 mps 747 mmHg 90%
    21:00 +28°C° 0.7 mm 2 mps 748 mmHg 91%
    22:00 +27°C° 0.7 mm 1 mps 748 mmHg 92%
    23:00 +27°C° 0.3 mm 2 mps 748 mmHg 92%

    Tomorrow, 15 December, Saturday

    Time Temperature Precipitation Wind Pressure Humidity
    00:00 +27°C° 0.3 mm 2 mps 747 mmHg 92%
    01:00 +27°C° 0.3 mm 2 mps 747 mmHg 92%
    02:00 +27°C° 0.3 mm 2 mps 747 mmHg 92%
    03:00 +27°C° 0.3 mm 2 mps 747 mmHg 92%
    04:00 +27°C° 0.3 mm 2 mps 747 mmHg 92%
    05:00 +27°C° 0.3 mm 2 mps 747 mmHg 91%
    06:00 +27°C° 0.3 mm 3 mps 747 mmHg 90%
    07:00 +28°C° 0.3 mm 3 mps 748 mmHg 89%
    08:00 +28°C° 1.1 mm 2 mps 748 mmHg 86%
    09:00 +29°C° 1.1 mm 2 mps 748 mmHg 84%
    10:00 +30°C° 1.1 mm 2 mps 748 mmHg 81%
    11:00 +30°C° 0.7 mm 1 mps 748 mmHg 78%
    12:00 +31°C° 0.7 mm 1 mps 747 mmHg 74%
    13:00 +32°C° 0.7 mm 1 mps 747 mmHg 71%
    14:00 +31°C° 0.9 mm 1 mps 746 mmHg 73%
    15:00 +31°C° 0.9 mm 2 mps 746 mmHg 76%
    16:00 +30°C° 0.9 mm 2 mps 746 mmHg 78%
    17:00 +29°C° 2 mm 2 mps 746 mmHg 83%
    18:00 +28°C° 2 mm 1 mps 747 mmHg 88%
    19:00 +28°C° 2 mm 1 mps 747 mmHg 93%
    20:00 +27°C° 2 mm 2 mps 748 mmHg 94%
    21:00 +27°C° 2 mm 2 mps 748 mmHg 95%
    22:00 +27°C° 2 mm 3 mps 748 mmHg 96%
    23:00 +27°C° 1.6 mm 3 mps 748 mmHg 96%

    Day after tomorrow, 16 December, Sunday

    Time Temperature Precipitation Wind Pressure Humidity
    00:00 +27°C° 1.6 mm 3 mps 747 mmHg 96%
    01:00 +27°C° 1.6 mm 3 mps 747 mmHg 96%
    02:00 +27°C° 1.7 mm 3 mps 747 mmHg 97%
    03:00 +27°C° 1.7 mm 3 mps 746 mmHg 97%
    04:00 +27°C° 1.7 mm 2 mps 746 mmHg 97%
    05:00 +27°C° 1.5 mm 3 mps 746 mmHg 96%
    06:00 +27°C° 1.5 mm 3 mps 747 mmHg 95%
    07:00 +28°C° 1.5 mm 3 mps 747 mmHg 94%
    08:00 +28°C° 1.2 mm 3 mps 747 mmHg 91%
    09:00 +29°C° 1.2 mm 4 mps 747 mmHg 88%
    10:00 +29°C° 1.2 mm 4 mps 747 mmHg 86%
    11:00 +30°C° 1.1 mm 4 mps 747 mmHg 85%
    12:00 +30°C° 1.1 mm 4 mps 746 mmHg 84%
    13:00 +30°C° 1.1 mm 4 mps 746 mmHg 83%
    14:00 +30°C° 1.6 mm 5 mps 746 mmHg 85%
    15:00 +29°C° 1.6 mm 5 mps 745 mmHg 87%
    16:00 +29°C° 1.6 mm 5 mps 745 mmHg 88%
    17:00 +28°C° 1.2 mm 5 mps 745 mmHg 90%
    18:00 +28°C° 1.2 mm 5 mps 745 mmHg 91%
    19:00 +28°C° 1.2 mm 6 mps 746 mmHg 93%
    20:00 +27°C° 0.2 mm 6 mps 746 mmHg 93%
    21:00 +27°C° 0.2 mm 6 mps 746 mmHg 93%
    22:00 +27°C° 0.2 mm 5 mps 746 mmHg 93%
    23:00 +27°C° 0 mm 5 mps 746 mmHg 93%

    17 December, Monday

    Time Temperature Precipitation Wind Pressure Humidity
    00:00 +27°C° 0 mm 5 mps 746 mmHg 94%
    01:00 +27°C° 0 mm 5 mps 745 mmHg 94%
    02:00 +27°C° 0.7 mm 5 mps 745 mmHg 95%
    03:00 +26°C° 0.7 mm 5 mps 745 mmHg 95%
    04:00 +26°C° 0.7 mm 4 mps 745 mmHg 96%
    05:00 +27°C° 1.3 mm 4 mps 745 mmHg 94%
    06:00 +27°C° 1.3 mm 4 mps 746 mmHg 92%
    07:00 +28°C° 1.3 mm 4 mps 747 mmHg 91%
    08:00 +29°C° 0.2 mm 4 mps 747 mmHg 83%
    09:00 +31°C° 0.2 mm 3 mps 747 mmHg 76%
    10:00 +34°C° 0.2 mm 3 mps 747 mmHg 69%
    11:00 +34°C° 1 mm 3 mps 747 mmHg 67%
    12:00 +34°C° 1 mm 3 mps 746 mmHg 66%
    13:00 +35°C° 1 mm 3 mps 746 mmHg 65%
    14:00 +35°C° 1.2 mm 3 mps 745 mmHg 66%
    15:00 +35°C° 1.2 mm 3 mps 745 mmHg 66%
    16:00 +35°C° 1.2 mm 2 mps 745 mmHg 66%
    17:00 +34°C° 0.3 mm 2 mps 745 mmHg 70%
    18:00 +32°C° 0.3 mm 2 mps 746 mmHg 74%
    19:00 +30°C° 0.3 mm 2 mps 746 mmHg 78%
    20:00 +30°C° 0 mm 2 mps 747 mmHg 80%
    21:00 +29°C° 0 mm 3 mps 747 mmHg 83%
    22:00 +29°C° 0 mm 3 mps 748 mmHg 85%
    23:00 +28°C° 0 mm 3 mps 748 mmHg 86%

    18 December, Tuesday

    Time Temperature Precipitation Wind Pressure Humidity
    00:00 +28°C° 0 mm 3 mps 747 mmHg 87%
    01:00 +28°C° 0 mm 2 mps 747 mmHg 88%
    02:00 +27°C° 0 mm 2 mps 747 mmHg 88%
    03:00 +27°C° 0 mm 2 mps 747 mmHg 89%
    04:00 +27°C° 0 mm 2 mps 747 mmHg 89%
    05:00 +28°C° 0 mm 2 mps 747 mmHg 87%
    06:00 +28°C° 0 mm 2 mps 748 mmHg 85%
    07:00 +29°C° 0 mm 3 mps 749 mmHg 84%
    08:00 +30°C° 0 mm 3 mps 749 mmHg 79%
    09:00 +31°C° 0 mm 3 mps 749 mmHg 74%
    10:00 +33°C° 0 mm 3 mps 749 mmHg 70%
    11:00 +33°C° 0.4 mm 3 mps 749 mmHg 71%
    12:00 +33°C° 0.4 mm 3 mps 748 mmHg 72%
    13:00 +32°C° 0.4 mm 2 mps 748 mmHg 74%
    14:00 +32°C° 2.1 mm 2 mps 747 mmHg 76%
    15:00 +31°C° 2.1 mm 2 mps 747 mmHg 79%
    16:00 +31°C° 2.1 mm 2 mps 747 mmHg 82%
    17:00 +30°C° 3.3 mm 2 mps 747 mmHg 84%
    18:00 +30°C° 3.3 mm 2 mps 748 mmHg 87%
    19:00 +29°C° 3.3 mm 2 mps 749 mmHg 89%
    20:00 +29°C° 1.4 mm 2 mps 749 mmHg 90%
    21:00 +28°C° 1.4 mm 2 mps 749 mmHg 91%
    22:00 +28°C° 1.4 mm 2 mps 750 mmHg 91%
    23:00 +28°C° 0.7 mm 3 mps 750 mmHg 92%

    19 December, Wednesday

    Time Temperature Precipitation Wind Pressure Humidity
    00:00 +28°C° 0.7 mm 3 mps 749 mmHg 92%
    01:00 +28°C° 0.7 mm 3 mps 749 mmHg 93%
    02:00 +28°C° 1 mm 4 mps 749 mmHg 93%
    03:00 +28°C° 1 mm 4 mps 749 mmHg 93%
    04:00 +28°C° 1 mm 4 mps 749 mmHg 93%
    05:00 +28°C° 2.4 mm 5 mps 749 mmHg 92%
    06:00 +28°C° 2.4 mm 5 mps 750 mmHg 91%
    07:00 +28°C° 2.4 mm 6 mps 750 mmHg 90%
    08:00 +28°C° 3.2 mm 5 mps 750 mmHg 91%
    09:00 +28°C° 3.2 mm 5 mps 750 mmHg 91%
    10:00 +28°C° 3.2 mm 5 mps 751 mmHg 91%
    11:00 +27°C° 3.9 mm 5 mps 750 mmHg 93%
    12:00 +27°C° 3.9 mm 5 mps 750 mmHg 94%
    13:00 +27°C° 3.9 mm 5 mps 749 mmHg 95%
    14:00 +27°C° 6.7 mm 6 mps 749 mmHg 95%
    15:00 +27°C° 6.7 mm 7 mps 749 mmHg 95%
    16:00 +27°C° 6.7 mm 7 mps 749 mmHg 95%
    17:00 +27°C° 6 mm 7 mps 749 mmHg 95%
    18:00 +27°C° 6 mm 7 mps 750 mmHg 95%
    19:00 +27°C° 6 mm 8 mps 750 mmHg 95%
    20:00 +27°C° 2 mm 7 mps 750 mmHg 95%
    21:00 +27°C° 2 mm 7 mps 751 mmHg 95%
    22:00 +27°C° 2 mm 7 mps 751 mmHg 94%
    23:00 +27°C° 2.4 mm 6 mps 751 mmHg 95%
    Show more